Location: Bieg
(49.3499°N, 10.3835°E)
Time: 00:28:41
(UTC+00:00)

Helios 1A Rocket - Pass Details

Date: 23 May 2024
Orbit: 521 x 543 km, 98.3° (Epoch: 15 June)

Event Time Altitude Azimuth Distance (km) Brightness Sun altitude
Exits shadow 00:08:05 40° 146° (SE) 802 3.3 -19.0°
Maximum altitude 00:09:21 72° 73° (ENE) 569 2.9 -19.0°
Drops below altitude 10° 00:13:13 10° 350° (N) 1,794 6.4 -18.8°
Sets 00:15:19 0° 348° (NNW) 2,685 7.5 -18.7°
